Regional Weather Roundup
Issued by NWS

Home | Current Version | Previous Version | Graphics & Text | Print | Product List | Glossary On
Versions: 1 2 3 4 5 6 7 8 9 10 11 12 13 14 15 16 17 18 19 20 21 22 23 24 25 26 27 28 29 30 31 32 33 34 35 36 37 38 39 40 41 42 43 44 45 46 47 48 49 50
000
ASUS45 KBOI 252110
RWRID

IDAHO REGIONAL WEATHER ROUNDUP
NATIONAL WEATHER SERVICE BOISE ID
300 PM MDT SAT MAR 25 2017

NOTE: "FAIR" INDICATES FEW OR NO CLOUDS BELOW 12000 FEET
WITH NO SIGNIFICANT WEATHER AND/OR OBSTRUCTIONS TO VISIBILITY

IDZ012-014-252200-
SOUTHWEST IDAHO


CITY           SKY/WX    TMP DP  RH WIND       PRES   REMARKS
BOISE          MOSUNNY   55  31  39 NW8       30.03F
CALDWELL       MOSUNNY   56  35  45 W5        30.03F
MOUNTAIN HOME  SUNNY     55  33  42 NW8       30.02F
$$

IDZ016-017-252200-
SOUTHCENTRAL IDAHO


CITY           SKY/WX    TMP DP  RH WIND       PRES   REMARKS
BURLEY         MOSUNNY   52  30  43 W14G24    29.99F
JEROME         MOSUNNY   51  29  42 W16G26    30.01F
TWIN FALLS     PTSUNNY   52  30  43 W16       30.02F
$$

IDZ019>023-252200-
SOUTHEAST IDAHO


CITY           SKY/WX    TMP DP  RH WIND       PRES   REMARKS
IDAHO FALLS    CLOUDY    45  35  68 SW12G21   29.97F
POCATELLO      MOSUNNY   48  34  58 W12       29.99F
REXBURG        CLOUDY    44  34  67 SW10      29.96F
$$

IDZ006-010-011-018-031-032-252200-
CENTRAL IDAHO MOUNTAINS


CITY           SKY/WX    TMP DP  RH WIND       PRES   REMARKS
MCCALL         MOSUNNY   41  25  53 SE8       29.98F
HAILEY         MOSUNNY   46  30  53 SE7       29.98F
STANLEY          N/A     39  19  44 W5        29.99F
SALMON         PTSUNNY   52  27  37 W7        29.93F
CHALLIS        PTSUNNY   51  20  29 MISG      29.92F
$$

IDZ002-004-006-007-026-252200-
NORTHERN IDAHO


CITY           SKY/WX    TMP DP  RH WIND       PRES   REMARKS
LEWISTON       PTSUNNY   50  41  71 NW13      30.05F
LOWELL           N/A     57  37  47 CALM      30.01F
COEUR D`ALENE  CLOUDY    47  32  56 SW18G24   30.01S
MULLAN PASS    SNOW      32  32 100 VRB3      29.94F VSB 1/4
$$



USA.gov is the U.S. government's official web portal to all federal, state and local government web resources and services.